#timestamp,LO_Frequency,Hit,StdDev 
1692280815.5,286046998.2,N
1692280835.3,286047001.1,N
1692280855.2,286046998.2,N
1692280875.0,286046999.1,N
1692280875.9,286046999.1,N
1692280895.7,286046999.2,N
1692280915.6,286046999.6,N
1692280965.5,286046999.5,E
1692280975.4,286046999.6,N
1692280995.2,286046999.2,P
1692281015.1,286046999.4,P
1692281016.0,286046999.4,Y
1692281035.8,286046999.1,P
1692281055.6,286046999.1,P
1692281075.5,286046998.3,P
1692281095.3,286046998.3,Y
1692281115.2,286047000.5,P
1692281135.9,286046998.2,N
1692281155.8,286047000.5,N
1692281175.6,286047000.5,N
1692281195.4,286047000.4,N
1692281215.3,286047000.4,N
1692281235.1,286047000.1,N
1692281255.8,286047000.6,N
1692281275.7,286047000.7,N
1692281295.5,286046998.5,N
1692281315.4,286046998.5,N
1692281335.2,286046998.6,N
1692281355.0,286047000.7,N
1692281355.9,286047000.7,N
1692281375.8,286046998.2,N
1692281395.6,286046999.0,N
1692281415.4,286046999.2,N
1692281435.3,286046998.4,N
1692281455.1,286047001.1,N
1692281475.9,286047000.8,N
1692281495.7,286046998.1,N
1692281515.9,286047000.8,N
1692281535.7,286047001.0,N
1692281555.5,286047000.9,N
1692281575.4,286046999.0,N
1692281595.2,286046999.3,N
1692281615.0,286046999.4,N
1692281615.9,286046999.4,N
1692281635.8,286046997.7,N
1692281655.6,286046997.4,N
1692281675.5,286046997.2,N
1692281695.3,286046997.3,N
1692281715.1,286046997.4,N
1692281735.9,286046996.6,N
1692281755.7,286046996.9,N
1692281775.5,286046996.6,N
1692281795.4,286047001.2,N
1692281815.2,286046999.5,N
1692281835.1,286046999.2,N
1692281836.0,286046999.2,N
1692281855.8,286046998.8,N
1692281875.6,286046998.4,N
1692281895.5,286046998.8,N
1692281915.3,286046998.7,N
1692281935.2,286046998.8,N
1692281955.9,286046996.6,N
1692281975.7,286046998.7,N
1692281995.6,286046999.4,N
1692282015.4,286046999.4,N
1692282035.2,286046998.9,N
1692282055.1,286046998.4,N
1692282056.0,286046998.4,N
1692282075.8,286046999.6,N
1692282095.7,286046996.5,Y
1692282115.5,286046998.2,P
1692282135.3,286047000.8,P
1692282155.2,286046999.0,N
1692282175.0,286047000.5,N
1692282175.9,286047000.5,N
1692282195.7,286046999.9,N
1692282215.6,286047000.8,N
1692282235.4,286046999.7,N
1692282255.3,286046999.7,N
1692282275.1,286047002.7,Y
1692282295.8,286046999.9,P
1692282315.7,286047002.4,P
1692282335.5,286047000.6,N
1692282355.4,286047000.0,N
1692282375.2,286047002.3,N
1692282395.0,286046999.9,N
1692282395.9,286046999.9,N
1692282415.8,286047000.6,N
1692282435.6,286047000.4,N
1692282455.4,286047002.4,N
1692282475.3,286047000.6,N
1692282495.1,286047000.6,N
1692282515.9,286046998.6,N
1692282535.7,286047000.9,N
1692282555.5,286046998.6,N
1692282575.4,286046998.6,N
1692282595.2,286046998.3,N
1692282615.0,286047001.1,N
1692282615.9,286047001.1,N
1692282635.8,286046999.8,N
1692282655.6,286046999.9,N
1692282675.5,286047000.5,N
1692282695.3,286047000.5,N
1692282715.1,286047000.2,N
1692282735.9,286047000.7,N
1692282755.7,286046998.3,N
1692282775.5,286047000.9,N
1692282795.4,286047000.8,N
1692282815.2,286047000.9,N
1692282835.1,286047001.1,N
1692282836.0,286047001.1,N
1692282855.8,286046998.5,N
1692282875.6,286046998.5,N
1692282895.5,286046998.2,N
1692282915.3,286047001.1,N
1692282935.2,286047001.1,N
1692282955.9,286046999.1,N
1692282975.8,286046996.9,N
1692282995.6,286046999.6,N
1692283015.4,286046997.5,N
1692283035.3,286046997.0,N
1692283055.1,286046997.5,N
1692283075.8,286046997.9,N
1692283095.7,286046997.6,N
1692283115.5,286046999.2,N
1692283135.4,286046998.4,N
1692283155.2,286046998.2,N
1692283175.0,286046998.4,N
1692283175.9,286046998.4,N
1692283195.8,286046998.5,N
1692283215.6,286047000.6,N
1692283235.5,286047000.6,N
1692283255.3,286046999.7,N
1692283275.1,286047001.0,N
1692283295.9,286046998.1,N
1692283315.7,286046998.7,N
1692283335.5,286046998.5,N
1692283355.4,286046999.8,N
1692283375.2,286046999.9,N
1692283395.1,286047002.7,N
1692283396.0,286047002.7,N
1692283415.8,286046999.8,N
1692283435.6,286047000.7,N
1692283455.5,286046998.2,N
1692283475.3,286047000.8,N
1692283525.2,286047000.5,E
1692283535.1,286046998.1,N
1692283536.0,286046998.1,P
1692283555.8,286046998.1,P
1692283575.7,286047000.7,Y
1692283595.5,286046999.7,P
1692283615.4,286047000.1,N
1692283635.2,286047002.2,N
1692283655.0,286047002.7,N
1692283655.9,286047002.7,N
1692283675.8,286047001.6,N
1692283695.9,286047004.0,N
1692283715.7,286047004.3,N
1692283735.5,286047001.9,N
1692283755.4,286047004.2,N
1692283775.2,286047004.3,N
1692283795.0,286047001.4,N
1692283795.9,286047001.4,N
1692283815.8,286047003.8,N
1692283835.6,286047003.1,N
1692283855.4,286047003.9,N
1692283875.3,286047001.4,N
1692283895.1,286047003.1,N
1692283915.9,286047003.7,N
1692283935.7,286047003.4,N
1692283955.5,286047003.2,N
1692283975.4,286047003.8,N
1692283995.2,286047003.7,N
1692284015.0,286047005.2,Y
1692284016.0,286047005.2,P
1692284035.8,286046999.7,N
1692284055.6,286047000.2,N
1692284075.5,286047000.4,N
1692284095.3,286046999.8,N
1692284115.1,286046999.8,N
1692284135.9,286047002.7,N
1692284155.7,286046999.8,N
1692284175.5,286047002.1,N
1692284195.4,286047002.3,N
1692284215.2,286046999.8,N
1692284235.1,286046999.7,N
1692284236.0,286046999.7,N
1692284255.8,286047000.1,N
1692284275.6,286047000.0,N
1692284295.5,286047000.1,N
1692284315.3,286047001.9,N
1692284335.1,286047001.3,N
1692284355.9,286047002.4,N
1692284375.7,286047002.6,N
1692284395.6,286047001.6,N
